User: anonymous   Login
Location: Springfield
(37.2150°N, 93.2980°W)
Time: 06:00:20
(UTC-05:00)
Language:

Iridium 62 - Orbit

View from above orbital plane
View from above orbital plane
View from above satellite
View from above satellite

Ground track
Ground track

The orbit data is extracted from the following two-line orbital elements,

1 25285U 98021A   18174.74480584 +.00000158 +00000-0 +44979-4 0  9994
2 25285 086.4224 068.6272 0002073 088.6096 271.5339 14.38610642058301
Epoch (UTC): 23 June 2018 17:52:31
Eccentricity: 0.0002073
inclination: 86.4224°
perigee height: 761 km
apogee height: 764 km
right ascension of ascending node: 68.6272°
argument of perigee: 88.6096°
revolutions per day: 14.38610642
mean anomaly at epoch: 271.5339°
orbit number at epoch: 5830

The dashed part of the orbit path shows where the satellite is in the earth's shadow,  

DLR